Location: Mount Kobau Star Party
(49.1167°N, 119.7333°W)
Time: 19:52:26
(UTC-07:00)

ISS - Visible Passes

Search period start: 12 July 2024 00:00
Search period end: 22 July 2024 00:00
Orbit: 410 x 424 km, 51.6° (Epoch: 12 July)

Date Brightness Start Highest point End Pass type
(mag) Time Alt. Az. Time Alt. Az. Time Alt. Az.
12 Jul -3.0 00:09:38 10° W 00:12:54 52° N 00:16:10 10° ENE visible
12 Jul -3.8 01:46:32 10° WNW 01:49:52 84° NNE 01:53:12 10° ESE visible
12 Jul -2.7 03:23:35 10° W 03:26:21 24° SW 03:29:07 10° SSE visible
12 Jul -3.8 21:44:35 10° SW 21:47:50 60° SSE 21:51:06 10° ENE visible
12 Jul -3.1 23:21:23 10° W 23:24:39 55° N 23:27:56 10° ENE visible
13 Jul -3.5 00:58:20 10° WNW 01:01:39 67° NNE 01:04:08 16° E visible
13 Jul -2.4 02:35:13 10° W 02:36:53 24° W 02:36:53 24° W visible
13 Jul -3.3 22:33:06 10° W 22:36:23 63° NNW 22:39:42 10° ENE visible
14 Jul -3.2 00:10:07 10° WNW 00:13:24 58° N 00:16:08 14° E visible
14 Jul -2.7 01:46:56 10° WNW 01:48:58 32° W 01:48:58 32° W visible
14 Jul -3.6 21:44:48 10° WSW 21:48:07 78° NNW 21:51:26 10° ENE visible
14 Jul -3.0 23:21:50 10° WNW 23:25:05 53° N 23:28:21 10° E visible
15 Jul -3.7 00:58:39 10° WNW 01:01:36 65° W 01:01:36 65° W visible
15 Jul -3.0 22:33:30 10° W 22:36:45 52° N 22:40:00 10° ENE visible
16 Jul -3.8 00:10:23 10° WNW 00:13:42 82° NNE 00:14:28 50° E visible
16 Jul -3.1 21:45:07 10° W 21:48:23 56° N 21:51:39 10° ENE visible
16 Jul -3.5 23:22:04 10° WNW 23:25:22 66° NNE 23:27:26 21° E visible
17 Jul -1.9 00:58:56 10° W 01:00:18 21° W 01:00:18 21° W visible
17 Jul -3.2 22:33:43 10° WNW 22:36:59 57° N 22:40:16 10° E visible
18 Jul -3.4 00:10:31 10° WNW 00:13:19 49° WSW 00:13:19 49° WSW visible
18 Jul -3.0 21:45:18 10° WNW 21:48:34 53° N 21:51:49 10° E visible
18 Jul -3.9 23:22:08 10° WNW 23:25:27 78° SSW 23:26:22 44° SE visible
19 Jul -3.8 22:33:44 10° WNW 22:37:03 80° NNE 22:39:26 18° ESE visible
20 Jul -1.9 00:10:44 10° W 00:12:18 21° WSW 00:12:18 21° WSW visible
20 Jul -3.4 21:45:18 10° WNW 21:48:36 64° NNE 21:51:53 10° E visible
20 Jul -3.2 23:22:08 10° WNW 23:25:16 39° SSW 23:25:24 39° SSW visible
21 Jul -3.7 22:33:36 10° WNW 22:36:53 58° SSW 22:38:30 26° SE visible
